Time,TemperatureF,DewpointF,PressureIn,WindDirection,WindDirectionDegrees,WindSpeedMPH,WindSpeedGustMPH,Humidity,HourlyPrecipIn,Conditions,Clouds,dailyrainin,SoftwareType,DateUTC
2013-01-26 00:04:00,38.7,24.8,30.45,West,270,0.7,2.2,57,0.00,,,0.00,pywws,2013-01-26 05:04:00,
2013-01-26 00:09:00,38.8,24.9,30.46,West,270,0.0,1.6,57,0.00,,,0.00,pywws,2013-01-26 05:09:00,
2013-01-26 00:14:00,38.8,24.5,30.46,East,90,0.0,0.0,56,0.00,,,0.00,pywws,2013-01-26 05:14:00,
2013-01-26 00:19:00,38.8,24.9,30.47,South,180,0.0,0.0,57,0.00,,,0.00,pywws,2013-01-26 05:19:00,
2013-01-26 00:24:00,38.8,24.9,30.47,West,270,0.0,1.6,57,0.00,,,0.00,pywws,2013-01-26 05:24:00,
2013-01-26 00:34:00,38.8,24.9,30.47,South,180,0.7,2.2,57,0.00,,,0.00,pywws,2013-01-26 05:34:00,
2013-01-26 00:39:00,39.0,25.5,30.48,SE,135,0.7,2.2,58,0.00,,,0.00,pywws,2013-01-26 05:39:00,
2013-01-26 00:44:00,39.0,25.1,30.48,North,0,0.7,1.6,57,0.00,,,0.00,pywws,2013-01-26 05:44:00,
2013-01-26 00:49:00,39.0,25.1,30.48,NW,315,0.0,0.0,57,0.00,,,0.00,pywws,2013-01-26 05:49:00,
2013-01-26 00:54:00,39.2,25.3,30.49,West,270,1.6,2.2,57,0.00,,,0.00,pywws,2013-01-26 05:54:00,
2013-01-26 01:04:00,39.2,25.3,30.49,West,270,0.7,1.6,57,0.00,,,0.00,pywws,2013-01-26 06:04:00,
2013-01-26 01:08:00,39.2,25.3,30.50,NW,315,2.2,3.1,57,0.00,,,0.00,pywws,2013-01-26 06:08:00,
2013-01-26 01:13:00,39.2,25.3,30.50,NW,315,0.7,1.6,57,0.00,,,0.00,pywws,2013-01-26 06:13:00,
2013-01-26 01:18:00,39.2,25.7,30.50,North,0,0.7,1.6,58,0.00,,,0.00,pywws,2013-01-26 06:18:00,
2013-01-26 01:23:00,39.2,25.7,30.50,West,270,0.7,1.6,58,0.00,,,0.00,pywws,2013-01-26 06:23:00,
2013-01-26 01:34:00,39.2,25.7,30.50,NW,315,1.6,3.8,58,0.00,,,0.00,pywws,2013-01-26 06:34:00,
2013-01-26 01:39:00,39.0,25.9,30.51,West,270,0.7,1.6,59,0.00,,,0.00,pywws,2013-01-26 06:39:00,
2013-01-26 01:44:00,39.2,26.1,30.51,West,270,0.7,1.6,59,0.00,,,0.00,pywws,2013-01-26 06:44:00,
2013-01-26 01:49:00,39.0,25.9,30.52,NW,315,1.6,3.1,59,0.00,,,0.00,pywws,2013-01-26 06:49:00,
2013-01-26 01:54:00,39.0,26.3,30.52,NW,315,0.0,1.6,60,0.00,,,0.00,pywws,2013-01-26 06:54:00,
2013-01-26 02:04:00,38.8,26.9,30.52,NW,315,0.0,1.6,62,0.00,,,0.00,pywws,2013-01-26 07:04:00,
2013-01-26 02:09:00,38.5,27.4,30.53,SE,135,0.0,0.0,64,0.00,,,0.00,pywws,2013-01-26 07:09:00,
2013-01-26 02:14:00,38.3,28.0,30.53,South,180,0.0,0.0,66,0.00,,,0.00,pywws,2013-01-26 07:14:00,
2013-01-26 02:19:00,38.3,28.3,30.53,NW,315,0.7,2.2,67,0.00,,,0.00,pywws,2013-01-26 07:19:00,
2013-01-26 02:24:00,38.5,28.5,30.53,NW,315,0.0,0.0,67,0.00,,,0.00,pywws,2013-01-26 07:24:00,
2013-01-26 02:34:00,38.5,28.5,30.53,NW,315,0.0,0.0,67,0.00,,,0.00,pywws,2013-01-26 07:34:00,
2013-01-26 02:39:00,38.7,28.3,30.54,West,270,0.7,1.6,66,0.00,,,0.00,pywws,2013-01-26 07:39:00,
2013-01-26 02:44:00,38.7,27.9,30.54,South,180,0.0,0.7,65,0.00,,,0.00,pywws,2013-01-26 07:44:00,
2013-01-26 02:49:00,38.8,28.5,30.54,West,270,0.0,0.7,66,0.00,,,0.00,pywws,2013-01-26 07:49:00,
2013-01-26 02:54:00,38.8,28.5,30.54,South,180,0.0,1.6,66,0.00,,,0.00,pywws,2013-01-26 07:54:00,
2013-01-26 03:04:00,38.8,28.5,30.55,West,270,0.7,2.2,66,0.00,,,0.00,pywws,2013-01-26 08:04:00,
2013-01-26 03:09:00,38.8,28.1,30.55,West,270,0.7,2.2,65,0.00,,,0.00,pywws,2013-01-26 08:09:00,
2013-01-26 03:14:00,39.0,28.3,30.55,West,270,0.7,2.2,65,0.00,,,0.00,pywws,2013-01-26 08:14:00,
2013-01-26 03:19:00,39.0,27.9,30.55,SW,225,0.0,0.7,64,0.00,,,0.00,pywws,2013-01-26 08:19:00,
2013-01-26 03:24:00,39.0,27.9,30.55,West,270,0.7,1.6,64,0.00,,,0.00,pywws,2013-01-26 08:24:00,
2013-01-26 03:34:00,39.0,28.3,30.55,NW,315,0.7,2.2,65,0.00,,,0.00,pywws,2013-01-26 08:34:00,
2013-01-26 03:39:00,39.2,28.4,30.56,NW,315,0.0,0.0,65,0.00,,,0.00,pywws,2013-01-26 08:39:00,
2013-01-26 03:44:00,39.2,28.4,30.56,NW,315,0.0,0.0,65,0.00,,,0.00,pywws,2013-01-26 08:44:00,
2013-01-26 03:49:00,39.4,28.6,30.56,West,270,0.0,0.0,65,0.00,,,0.00,pywws,2013-01-26 08:49:00,
2013-01-26 03:54:00,39.4,28.6,30.56,West,270,0.0,1.6,65,0.00,,,0.00,pywws,2013-01-26 08:54:00,
2013-01-26 04:04:00,39.6,28.8,30.56,West,270,0.7,2.2,65,0.00,,,0.00,pywws,2013-01-26 09:04:00,
2013-01-26 04:09:00,39.6,28.8,30.55,South,180,0.0,1.6,65,0.00,,,0.00,pywws,2013-01-26 09:09:00,
2013-01-26 04:14:00,39.6,28.8,30.54,East,90,0.7,2.2,65,0.00,,,0.00,pywws,2013-01-26 09:14:00,
2013-01-26 04:19:00,39.4,28.6,30.53,North,0,0.7,1.6,65,0.00,,,0.00,pywws,2013-01-26 09:19:00,
2013-01-26 04:24:00,39.2,28.4,30.53,North,0,0.0,0.0,65,0.00,,,0.00,pywws,2013-01-26 09:24:00,
2013-01-26 04:34:00,39.0,28.3,30.52,West,270,0.0,0.7,65,0.00,,,0.00,pywws,2013-01-26 09:34:00,
2013-01-26 04:39:00,38.8,28.8,30.50,North,0,0.0,0.0,67,0.00,,,0.00,pywws,2013-01-26 09:39:00,
2013-01-26 04:44:00,38.5,28.9,30.50,South,180,0.0,0.7,68,0.00,,,0.00,pywws,2013-01-26 09:44:00,
2013-01-26 04:49:00,38.3,28.7,30.49,North,0,0.7,1.6,68,0.00,,,0.00,pywws,2013-01-26 09:49:00,
2013-01-26 04:54:00,38.3,28.7,30.49,North,0,0.0,1.6,68,0.00,,,0.00,pywws,2013-01-26 09:54:00,
2013-01-26 05:04:00,38.3,28.7,30.48,WNW,292,0.0,1.6,68,0.00,,,0.00,pywws,2013-01-26 10:04:00,
2013-01-26 05:09:00,38.1,29.2,30.47,SE,135,0.0,1.6,70,0.00,,,0.00,pywws,2013-01-26 10:09:00,
2013-01-26 05:14:00,37.9,28.7,30.46,SSE,158,0.0,0.7,69,0.00,,,0.00,pywws,2013-01-26 10:14:00,
2013-01-26 05:19:00,37.8,29.2,30.46,North,0,1.6,2.2,71,0.00,,,0.00,pywws,2013-01-26 10:19:00,
2013-01-26 05:24:00,37.8,29.2,30.45,East,90,0.0,1.6,71,0.00,,,0.00,pywws,2013-01-26 10:24:00,
2013-01-26 05:34:00,37.6,29.0,30.45,South,180,0.0,1.6,71,0.00,,,0.00,pywws,2013-01-26 10:34:00,
2013-01-26 05:39:00,37.0,29.2,30.44,West,270,0.7,1.6,73,0.00,,,0.00,pywws,2013-01-26 10:39:00,
2013-01-26 05:44:00,37.2,29.4,30.44,SW,225,0.0,0.0,73,0.00,,,0.00,pywws,2013-01-26 10:44:00,
2013-01-26 05:49:00,36.9,28.7,30.43,SW,225,0.0,0.0,72,0.00,,,0.00,pywws,2013-01-26 10:49:00,
2013-01-26 05:54:00,36.9,29.0,30.43,North,0,0.7,1.6,73,0.00,,,0.00,pywws,2013-01-26 10:54:00,
2013-01-26 06:04:00,36.9,29.4,30.42,NW,315,0.7,1.6,74,0.00,,,0.00,pywws,2013-01-26 11:04:00,
2013-01-26 06:09:00,36.9,29.7,30.42,North,0,0.0,0.0,75,0.00,,,0.00,pywws,2013-01-26 11:09:00,
2013-01-26 06:14:00,36.7,29.5,30.42,West,270,0.0,0.0,75,0.00,,,0.00,pywws,2013-01-26 11:14:00,
2013-01-26 06:19:00,36.5,29.3,30.42,West,270,0.0,0.0,75,0.00,,,0.00,pywws,2013-01-26 11:19:00,
2013-01-26 06:24:00,36.3,29.5,30.43,NE,45,0.0,0.0,76,0.00,,,0.00,pywws,2013-01-26 11:24:00,
2013-01-26 06:34:00,36.3,29.2,30.43,NE,45,0.0,0.0,75,0.00,,,0.00,pywws,2013-01-26 11:34:00,
2013-01-26 06:39:00,36.1,29.6,30.44,SE,135,0.0,0.0,77,0.00,,,0.00,pywws,2013-01-26 11:39:00,
2013-01-26 06:44:00,36.0,29.1,30.44,SE,135,0.0,0.0,76,0.00,,,0.00,pywws,2013-01-26 11:44:00,
2013-01-26 06:49:00,35.8,29.0,30.43,SE,135,0.0,0.0,76,0.00,,,0.00,pywws,2013-01-26 11:49:00,
2013-01-26 06:54:00,35.8,29.0,30.43,SE,135,0.0,0.0,76,0.00,,,0.00,pywws,2013-01-26 11:54:00,
2013-01-26 07:04:00,35.8,29.0,30.42,North,0,0.0,0.0,76,0.00,,,0.00,pywws,2013-01-26 12:04:00,
2013-01-26 07:09:00,35.6,28.8,30.42,West,270,0.0,0.0,76,0.00,,,0.00,pywws,2013-01-26 12:09:00,
2013-01-26 07:14:00,35.4,28.9,30.41,West,270,0.0,0.0,77,0.00,,,0.00,pywws,2013-01-26 12:14:00,
2013-01-26 07:19:00,35.1,28.6,30.40,West,270,0.0,0.0,77,0.00,,,0.00,pywws,2013-01-26 12:19:00,
2013-01-26 07:24:00,35.1,28.9,30.40,West,270,0.0,0.0,78,0.00,,,0.00,pywws,2013-01-26 12:24:00,
2013-01-26 07:34:00,34.9,28.7,30.39,North,0,0.0,0.0,78,0.00,,,0.00,pywws,2013-01-26 12:34:00,
2013-01-26 07:39:00,34.5,28.7,30.37,SW,225,0.0,0.0,79,0.00,,,0.00,pywws,2013-01-26 12:39:00,
2013-01-26 07:44:00,34.5,28.7,30.37,SW,225,0.0,0.0,79,0.00,,,0.00,pywws,2013-01-26 12:44:00,
2013-01-26 07:49:00,34.3,28.5,30.37,SW,225,0.0,0.0,79,0.00,,,0.00,pywws,2013-01-26 12:49:00,
2013-01-26 07:54:00,34.3,28.5,30.36,SW,225,0.0,0.0,79,0.00,,,0.00,pywws,2013-01-26 12:54:00,
2013-01-26 08:04:00,34.5,29.0,30.35,SW,225,0.0,0.0,80,0.00,,,0.00,pywws,2013-01-26 13:04:00,
2013-01-26 08:09:00,35.1,29.2,30.33,SW,225,0.0,0.0,79,0.00,,,0.00,pywws,2013-01-26 13:09:00,
2013-01-26 08:14:00,35.4,29.6,30.33,SW,225,0.0,0.0,79,0.00,,,0.00,pywws,2013-01-26 13:14:00,
2013-01-26 08:19:00,35.6,29.4,30.32,SW,225,0.0,0.0,78,0.00,,,0.00,pywws,2013-01-26 13:19:00,
2013-01-26 08:24:00,36.1,30.0,30.32,North,0,0.0,0.0,78,0.00,,,0.00,pywws,2013-01-26 13:24:00,
2013-01-26 08:34:00,36.3,30.1,30.32,North,0,0.0,0.0,78,0.00,,,0.00,pywws,2013-01-26 13:34:00,
2013-01-26 08:39:00,37.4,30.9,30.30,NE,45,0.0,0.0,77,0.00,,,0.00,pywws,2013-01-26 13:39:00,
2013-01-26 08:44:00,37.9,31.1,30.29,NE,45,0.0,0.0,76,0.00,,,0.00,pywws,2013-01-26 13:44:00,
2013-01-26 08:49:00,38.8,31.6,30.29,North,0,0.0,0.0,75,0.00,,,0.00,pywws,2013-01-26 13:49:00,
2013-01-26 08:54:00,39.6,32.0,30.30,NW,315,0.0,0.0,74,0.00,,,0.00,pywws,2013-01-26 13:54:00,
2013-01-26 09:04:00,40.5,32.5,30.30,NW,315,0.0,0.0,73,0.00,,,0.00,pywws,2013-01-26 14:04:00,
2013-01-26 09:08:00,41.5,32.5,30.32,West,270,1.6,3.8,70,0.00,,,0.00,pywws,2013-01-26 14:08:00,
2013-01-26 09:13:00,41.9,32.8,30.32,West,270,0.7,1.6,70,0.00,,,0.00,pywws,2013-01-26 14:13:00,
2013-01-26 09:18:00,41.9,32.8,30.33,West,270,0.0,1.6,70,0.00,,,0.00,pywws,2013-01-26 14:18:00,
2013-01-26 09:23:00,42.4,33.0,30.33,NW,315,1.6,2.2,69,0.00,,,0.00,pywws,2013-01-26 14:23:00,
2013-01-26 09:34:00,42.6,33.2,30.33,NW,315,0.7,2.2,69,0.00,,,0.00,pywws,2013-01-26 14:34:00,
2013-01-26 09:39:00,43.5,34.0,30.32,West,270,1.6,2.2,69,0.00,,,0.00,pywws,2013-01-26 14:39:00,
2013-01-26 09:44:00,43.9,33.6,30.31,NW,315,0.7,2.2,67,0.00,,,0.00,pywws,2013-01-26 14:44:00,
2013-01-26 09:49:00,43.9,33.6,30.30,West,270,0.7,2.2,67,0.00,,,0.00,pywws,2013-01-26 14:49:00,
2013-01-26 09:54:00,44.1,33.4,30.29,West,270,0.7,1.6,66,0.00,,,0.00,pywws,2013-01-26 14:54:00,
2013-01-26 10:04:00,45.0,33.9,30.28,WNW,292,2.2,3.8,65,0.00,,,0.00,pywws,2013-01-26 15:04:00,
2013-01-26 10:09:00,46.0,34.6,30.27,NNE,22,0.0,1.6,64,0.00,,,0.00,pywws,2013-01-26 15:09:00,
2013-01-26 10:14:00,47.5,35.1,30.27,NW,315,1.6,3.1,62,0.00,,,0.00,pywws,2013-01-26 15:14:00,
2013-01-26 10:19:00,47.7,34.5,30.27,West,270,1.6,4.5,60,0.00,,,0.00,pywws,2013-01-26 15:19:00,
2013-01-26 10:24:00,47.7,34.5,30.27,NW,315,2.2,5.4,60,0.00,,,0.00,pywws,2013-01-26 15:24:00,
2013-01-26 10:34:00,47.7,34.5,30.27,West,270,2.2,4.5,60,0.00,,,0.00,pywws,2013-01-26 15:34:00,
2013-01-26 10:38:00,48.2,34.6,30.28,NW,315,3.1,4.5,59,0.00,,,0.00,pywws,2013-01-26 15:38:00,
2013-01-26 10:43:00,48.6,34.9,30.29,West,270,0.7,3.1,59,0.00,,,0.00,pywws,2013-01-26 15:43:00,
2013-01-26 10:48:00,49.5,35.3,30.29,West,270,2.2,3.8,58,0.00,,,0.00,pywws,2013-01-26 15:48:00,
2013-01-26 10:53:00,50.2,35.5,30.30,NE,45,1.6,3.1,57,0.00,,,0.00,pywws,2013-01-26 15:53:00,
2013-01-26 11:04:00,51.3,36.1,30.30,North,0,1.6,3.1,56,0.00,,,0.00,pywws,2013-01-26 16:04:00,
2013-01-26 11:09:00,52.5,35.9,30.31,NW,315,1.6,3.1,53,0.00,,,0.00,pywws,2013-01-26 16:09:00,
2013-01-26 11:14:00,53.8,37.1,30.32,NW,315,0.0,1.6,53,0.00,,,0.00,pywws,2013-01-26 16:14:00,
2013-01-26 11:19:00,54.0,35.2,30.32,West,270,0.7,2.2,49,0.00,,,0.00,pywws,2013-01-26 16:19:00,
2013-01-26 11:24:00,53.8,35.1,30.32,NNW,338,3.1,6.0,49,0.00,,,0.00,pywws,2013-01-26 16:24:00,
2013-01-26 11:34:00,53.6,35.4,30.32,West,270,1.6,4.5,50,0.00,,,0.00,pywws,2013-01-26 16:34:00,
2013-01-26 11:39:00,53.2,35.6,30.33,West,270,3.1,5.4,51,0.00,,,0.00,pywws,2013-01-26 16:39:00,
2013-01-26 11:44:00,53.2,35.6,30.33,West,270,3.1,4.5,51,0.00,,,0.00,pywws,2013-01-26 16:44:00,
2013-01-26 11:49:00,53.6,35.9,30.32,NW,315,3.1,4.5,51,0.00,,,0.00,pywws,2013-01-26 16:49:00,
2013-01-26 11:54:00,53.8,36.1,30.30,WNW,292,3.1,4.5,51,0.00,,,0.00,pywws,2013-01-26 16:54:00,
2013-01-26 12:04:00,53.8,36.1,30.29,North,0,1.6,3.1,51,0.00,,,0.00,pywws,2013-01-26 17:04:00,
2013-01-26 12:09:00,55.2,36.9,30.27,West,270,1.6,2.2,50,0.00,,,0.00,pywws,2013-01-26 17:09:00,
2013-01-26 12:14:00,55.2,35.9,30.26,West,270,3.1,5.4,48,0.00,,,0.00,pywws,2013-01-26 17:14:00,
2013-01-26 12:19:00,55.6,36.7,30.26,West,270,1.6,3.8,49,0.00,,,0.00,pywws,2013-01-26 17:19:00,
2013-01-26 12:24:00,55.9,36.5,30.27,NE,45,0.7,3.1,48,0.00,,,0.00,pywws,2013-01-26 17:24:00,
2013-01-26 12:34:00,56.5,37.0,30.27,NE,45,0.0,1.6,48,0.00,,,0.00,pywws,2013-01-26 17:34:00,
2013-01-26 12:39:00,55.2,35.9,30.28,SW,225,3.1,4.5,48,0.00,,,0.00,pywws,2013-01-26 17:39:00,
2013-01-26 12:44:00,56.1,37.2,30.28,NW,315,1.6,3.1,49,0.00,,,0.00,pywws,2013-01-26 17:44:00,
2013-01-26 12:49:00,56.7,37.2,30.28,North,0,0.7,3.1,48,0.00,,,0.00,pywws,2013-01-26 17:49:00,
2013-01-26 12:54:00,57.6,36.9,30.29,North,0,1.6,3.8,46,0.00,,,0.00,pywws,2013-01-26 17:54:00,
2013-01-26 13:04:00,58.3,37.6,30.29,SE,135,1.6,3.1,46,0.00,,,0.00,pywws,2013-01-26 18:04:00,
2013-01-26 13:09:00,58.5,37.2,30.29,NE,45,0.7,1.6,45,0.00,,,0.00,pywws,2013-01-26 18:09:00,
2013-01-26 13:14:00,58.8,37.5,30.30,West,270,0.7,3.1,45,0.00,,,0.00,pywws,2013-01-26 18:14:00,
2013-01-26 13:19:00,58.8,37.5,30.30,NW,315,1.6,2.2,45,0.00,,,0.00,pywws,2013-01-26 18:19:00,
2013-01-26 13:24:00,59.4,38.0,30.30,West,270,0.7,1.6,45,0.00,,,0.00,pywws,2013-01-26 18:24:00,
2013-01-26 13:34:00,60.8,38.2,30.30,NE,45,1.6,3.1,43,0.00,,,0.00,pywws,2013-01-26 18:34:00,
2013-01-26 13:38:00,59.9,37.3,30.30,SE,135,0.0,0.7,43,0.00,,,0.00,pywws,2013-01-26 18:38:00,
2013-01-26 13:43:00,60.3,37.1,30.31,SW,225,0.7,3.1,42,0.00,,,0.00,pywws,2013-01-26 18:43:00,
2013-01-26 13:48:00,60.3,36.5,30.31,West,270,2.2,3.8,41,0.00,,,0.00,pywws,2013-01-26 18:48:00,
2013-01-26 13:53:00,60.1,35.7,30.31,SW,225,1.6,3.1,40,0.00,,,0.00,pywws,2013-01-26 18:53:00,
2013-01-26 14:04:00,59.9,34.9,30.31,SE,135,2.2,3.8,39,0.00,,,0.00,pywws,2013-01-26 19:04:00,
2013-01-26 14:09:00,60.1,36.3,30.31,West,270,1.6,3.1,41,0.00,,,0.00,pywws,2013-01-26 19:09:00,
2013-01-26 14:14:00,60.1,36.3,30.31,North,0,1.6,2.2,41,0.00,,,0.00,pywws,2013-01-26 19:14:00,
2013-01-26 14:19:00,60.1,35.7,30.31,West,270,1.6,3.1,40,0.00,,,0.00,pywws,2013-01-26 19:19:00,
2013-01-26 14:24:00,59.9,35.5,30.31,NW,315,2.2,3.8,40,0.00,,,0.00,pywws,2013-01-26 19:24:00,
2013-01-26 14:34:00,60.1,34.4,30.31,West,270,1.6,3.1,38,0.00,,,0.00,pywws,2013-01-26 19:34:00,
2013-01-26 14:39:00,59.9,34.9,30.31,SW,225,0.7,2.2,39,0.00,,,0.00,pywws,2013-01-26 19:39:00,
2013-01-26 14:44:00,60.6,34.9,30.31,West,270,3.1,5.4,38,0.00,,,0.00,pywws,2013-01-26 19:44:00,
2013-01-26 14:49:00,61.2,35.4,30.31,South,180,0.7,3.1,38,0.00,,,0.00,pywws,2013-01-26 19:49:00,
2013-01-26 14:54:00,61.3,34.8,30.31,NW,315,1.6,3.1,37,0.00,,,0.00,pywws,2013-01-26 19:54:00,
2013-01-26 15:04:00,61.3,33.5,30.31,West,270,3.8,5.4,35,0.00,,,0.00,pywws,2013-01-26 20:04:00,
2013-01-26 15:09:00,61.9,34.6,30.31,NW,315,0.7,3.1,36,0.00,,,0.00,pywws,2013-01-26 20:09:00,
2013-01-26 15:14:00,61.9,33.9,30.31,WNW,292,3.1,5.4,35,0.00,,,0.00,pywws,2013-01-26 20:14:00,
2013-01-26 15:19:00,61.7,33.8,30.31,NNW,338,1.6,3.1,35,0.00,,,0.00,pywws,2013-01-26 20:19:00,
2013-01-26 15:24:00,61.5,33.6,30.31,West,270,2.2,3.8,35,0.00,,,0.00,pywws,2013-01-26 20:24:00,
2013-01-26 15:34:00,61.2,34.0,30.30,North,0,0.0,0.0,36,0.00,,,0.00,pywws,2013-01-26 20:34:00,
2013-01-26 15:38:00,61.3,33.5,30.30,West,270,1.6,3.1,35,0.00,,,0.00,pywws,2013-01-26 20:38:00,
2013-01-26 15:43:00,62.2,33.5,30.30,West,270,2.2,3.1,34,0.00,,,0.00,pywws,2013-01-26 20:43:00,
2013-01-26 15:48:00,63.0,33.4,30.30,South,180,0.7,3.1,33,0.00,,,0.00,pywws,2013-01-26 20:48:00,
2013-01-26 15:53:00,63.7,34.0,30.30,West,270,1.6,3.1,33,0.00,,,0.00,pywws,2013-01-26 20:53:00,
2013-01-26 16:04:00,63.5,33.1,30.30,NW,315,1.6,2.2,32,0.00,,,0.00,pywws,2013-01-26 21:04:00,
2013-01-26 16:08:00,66.6,35.8,30.30,East,90,0.0,1.6,32,0.00,,,0.00,pywws,2013-01-26 21:08:00,
2013-01-26 16:13:00,65.7,33.4,30.30,South,180,0.7,2.2,30,0.00,,,0.00,pywws,2013-01-26 21:13:00,
2013-01-26 16:18:00,65.1,32.9,30.30,South,180,2.2,3.1,30,0.00,,,0.00,pywws,2013-01-26 21:18:00,
2013-01-26 16:23:00,64.6,33.3,30.30,SE,135,0.0,0.7,31,0.00,,,0.00,pywws,2013-01-26 21:23:00,
2013-01-26 16:34:00,64.6,34.8,30.30,West,270,0.0,3.1,33,0.00,,,0.00,pywws,2013-01-26 21:34:00,
2013-01-26 16:38:00,62.4,32.2,30.30,North,0,0.7,3.1,32,0.00,,,0.00,pywws,2013-01-26 21:38:00,
2013-01-26 16:43:00,62.8,33.3,30.30,West,270,2.2,3.8,33,0.00,,,0.00,pywws,2013-01-26 21:43:00,
2013-01-26 16:48:00,63.0,32.6,30.30,West,270,0.7,1.6,32,0.00,,,0.00,pywws,2013-01-26 21:48:00,
2013-01-26 16:53:00,63.1,32.8,30.30,West,270,1.6,2.2,32,0.00,,,0.00,pywws,2013-01-26 21:53:00,
2013-01-26 17:04:00,61.9,32.5,30.30,NE,45,0.0,0.7,33,0.00,,,0.00,pywws,2013-01-26 22:04:00,
2013-01-26 17:08:00,60.4,31.9,30.30,SW,225,0.0,1.6,34,0.00,,,0.00,pywws,2013-01-26 22:08:00,
2013-01-26 17:13:00,59.7,31.3,30.30,West,270,0.7,1.6,34,0.00,,,0.00,pywws,2013-01-26 22:13:00,
2013-01-26 17:18:00,59.5,31.9,30.30,West,270,0.7,2.2,35,0.00,,,0.00,pywws,2013-01-26 22:18:00,
2013-01-26 17:23:00,59.2,31.5,30.30,West,270,0.0,0.7,35,0.00,,,0.00,pywws,2013-01-26 22:23:00,
2013-01-26 17:34:00,59.0,31.4,30.30,West,270,0.7,1.6,35,0.00,,,0.00,pywws,2013-01-26 22:34:00,
2013-01-26 17:38:00,57.9,31.8,30.30,SW,225,0.0,1.6,37,0.00,,,0.00,pywws,2013-01-26 22:38:00,
2013-01-26 17:43:00,57.2,31.8,30.30,South,180,0.0,0.0,38,0.00,,,0.00,pywws,2013-01-26 22:43:00,
2013-01-26 17:48:00,56.3,32.3,30.30,South,180,0.0,0.0,40,0.00,,,0.00,pywws,2013-01-26 22:48:00,
2013-01-26 17:53:00,55.4,32.7,30.30,South,180,0.0,0.0,42,0.00,,,0.00,pywws,2013-01-26 22:53:00,
2013-01-26 18:04:00,54.5,32.5,30.30,East,90,0.0,0.0,43,0.00,,,0.00,pywws,2013-01-26 23:04:00,
2013-01-26 18:09:00,53.1,33.4,30.30,South,180,0.0,0.0,47,0.00,,,0.00,pywws,2013-01-26 23:09:00,
2013-01-26 18:14:00,52.5,33.4,30.30,South,180,0.0,0.0,48,0.00,,,0.00,pywws,2013-01-26 23:14:00,
2013-01-26 18:19:00,52.0,32.9,30.30,West,270,0.0,0.0,48,0.00,,,0.00,pywws,2013-01-26 23:19:00,
2013-01-26 18:24:00,51.4,32.9,30.30,West,270,0.0,0.0,49,0.00,,,0.00,pywws,2013-01-26 23:24:00,
2013-01-26 18:34:00,50.9,32.4,30.30,West,270,0.0,0.0,49,0.00,,,0.00,pywws,2013-01-26 23:34:00,
2013-01-26 18:39:00,49.6,34.1,30.30,SE,135,0.0,0.0,55,0.00,,,0.00,pywws,2013-01-26 23:39:00,
2013-01-26 18:44:00,49.1,33.6,30.30,SE,135,0.0,0.0,55,0.00,,,0.00,pywws,2013-01-26 23:44:00,
2013-01-26 18:49:00,48.7,34.2,30.30,SE,135,0.0,0.7,57,0.00,,,0.00,pywws,2013-01-26 23:49:00,
2013-01-26 18:54:00,48.4,33.9,30.30,SE,135,0.0,0.0,57,0.00,,,0.00,pywws,2013-01-26 23:54:00,
2013-01-26 19:04:00,48.0,34.0,30.30,SE,135,0.0,0.7,58,0.00,,,0.00,pywws,2013-01-27 00:04:00,
2013-01-26 19:08:00,47.5,33.9,30.31,South,180,0.0,0.0,59,0.00,,,0.00,pywws,2013-01-27 00:08:00,
2013-01-26 19:13:00,46.8,34.8,30.31,SE,135,0.7,1.6,63,0.00,,,0.00,pywws,2013-01-27 00:13:00,
2013-01-26 19:18:00,46.8,34.8,30.31,SE,135,0.7,1.6,63,0.00,,,0.00,pywws,2013-01-27 00:18:00,
2013-01-26 19:23:00,46.4,34.5,30.32,SE,135,0.0,0.0,63,0.00,,,0.00,pywws,2013-01-27 00:23:00,
2013-01-26 19:34:00,46.0,34.2,30.32,SE,135,0.0,0.0,63,0.00,,,0.00,pywws,2013-01-27 00:34:00,
2013-01-26 19:39:00,46.2,33.9,30.32,SE,135,0.0,0.7,62,0.00,,,0.00,pywws,2013-01-27 00:39:00,
2013-01-26 19:44:00,46.4,33.7,30.32,SE,135,0.7,1.6,61,0.00,,,0.00,pywws,2013-01-27 00:44:00,
2013-01-26 19:49:00,46.8,33.2,30.32,SE,135,0.0,0.7,59,0.00,,,0.00,pywws,2013-01-27 00:49:00,
2013-01-26 19:54:00,46.4,33.3,30.32,SE,135,0.7,1.6,60,0.00,,,0.00,pywws,2013-01-27 00:54:00,
2013-01-26 20:09:00,45.9,32.8,30.33,SE,135,0.0,0.0,60,0.00,,,0.00,pywws,2013-01-27 01:09:00,
2013-01-26 20:14:00,45.7,32.6,30.33,SE,135,0.0,1.6,60,0.00,,,0.00,pywws,2013-01-27 01:14:00,
2013-01-26 20:19:00,45.9,32.4,30.33,SE,135,0.0,1.6,59,0.00,,,0.00,pywws,2013-01-27 01:19:00,
2013-01-26 20:24:00,46.0,32.1,30.33,SE,135,0.0,0.7,58,0.00,,,0.00,pywws,2013-01-27 01:24:00,
2013-01-26 20:34:00,46.0,32.1,30.33,SE,135,0.0,1.6,58,0.00,,,0.00,pywws,2013-01-27 01:34:00,
2013-01-26 20:39:00,46.0,32.1,30.33,SE,135,0.0,1.6,58,0.00,,,0.00,pywws,2013-01-27 01:39:00,
2013-01-26 20:44:00,46.0,31.7,30.33,South,180,0.7,1.6,57,0.00,,,0.00,pywws,2013-01-27 01:44:00,
2013-01-26 20:49:00,46.0,31.7,30.34,SE,135,0.7,2.2,57,0.00,,,0.00,pywws,2013-01-27 01:49:00,
2013-01-26 20:54:00,45.5,30.7,30.34,SE,135,0.7,1.6,56,0.00,,,0.00,pywws,2013-01-27 01:54:00,
2013-01-26 21:04:00,46.2,31.4,30.34,SE,135,0.7,1.6,56,0.00,,,0.00,pywws,2013-01-27 02:04:00,
2013-01-26 21:09:00,46.0,31.7,30.34,SE,135,0.7,1.6,57,0.00,,,0.00,pywws,2013-01-27 02:09:00,
2013-01-26 21:14:00,45.9,31.5,30.34,SE,135,0.7,1.6,57,0.00,,,0.00,pywws,2013-01-27 02:14:00,
2013-01-26 21:19:00,45.7,31.3,30.34,SE,135,0.0,1.6,57,0.00,,,0.00,pywws,2013-01-27 02:19:00,
2013-01-26 21:24:00,45.7,31.3,30.34,SE,135,0.7,1.6,57,0.00,,,0.00,pywws,2013-01-27 02:24:00,
2013-01-26 21:34:00,45.5,31.2,30.34,South,180,0.7,2.2,57,0.00,,,0.00,pywws,2013-01-27 02:34:00,
2013-01-26 21:39:00,45.7,31.8,30.35,SE,135,0.7,2.2,58,0.00,,,0.00,pywws,2013-01-27 02:39:00,
2013-01-26 21:44:00,45.9,31.9,30.35,SE,135,1.6,3.1,58,0.00,,,0.00,pywws,2013-01-27 02:44:00,
2013-01-26 21:49:00,45.9,31.9,30.35,SE,135,0.0,2.2,58,0.00,,,0.00,pywws,2013-01-27 02:49:00,
2013-01-26 21:54:00,45.7,31.8,30.35,SE,135,1.6,2.2,58,0.00,,,0.00,pywws,2013-01-27 02:54:00,
2013-01-26 22:04:00,45.5,32.0,30.35,SE,135,0.7,2.2,59,0.00,,,0.00,pywws,2013-01-27 03:04:00,
2013-01-26 22:09:00,45.0,31.9,30.36,SE,135,1.6,3.1,60,0.00,,,0.00,pywws,2013-01-27 03:09:00,
2013-01-26 22:14:00,44.8,31.8,30.36,SE,135,1.6,2.2,60,0.00,,,0.00,pywws,2013-01-27 03:14:00,
2013-01-26 22:19:00,44.8,31.8,30.36,SE,135,1.6,2.2,60,0.00,,,0.00,pywws,2013-01-27 03:19:00,
2013-01-26 22:24:00,44.6,32.0,30.36,SE,135,0.7,1.6,61,0.00,,,0.00,pywws,2013-01-27 03:24:00,
2013-01-26 22:34:00,44.4,31.8,30.37,SE,135,1.6,3.1,61,0.00,,,0.00,pywws,2013-01-27 03:34:00,
2013-01-26 22:39:00,44.1,31.9,30.37,SE,135,1.6,3.1,62,0.00,,,0.00,pywws,2013-01-27 03:39:00,
2013-01-26 22:44:00,44.1,32.3,30.37,SE,135,0.7,3.1,63,0.00,,,0.00,pywws,2013-01-27 03:44:00,
2013-01-26 22:49:00,43.9,32.1,30.37,South,180,0.7,2.2,63,0.00,,,0.00,pywws,2013-01-27 03:49:00,
2013-01-26 22:54:00,43.5,31.8,30.38,SE,135,0.7,2.2,63,0.00,,,0.00,pywws,2013-01-27 03:54:00,
2013-01-26 23:04:00,43.3,32.0,30.38,South,180,0.7,1.6,64,0.00,,,0.00,pywws,2013-01-27 04:04:00,
2013-01-26 23:09:00,43.2,31.8,30.39,East,90,0.7,1.6,64,0.00,,,0.00,pywws,2013-01-27 04:09:00,
2013-01-26 23:14:00,43.0,32.4,30.39,SSE,158,0.7,2.2,66,0.00,,,0.00,pywws,2013-01-27 04:14:00,
2013-01-26 23:19:00,42.6,32.1,30.39,SE,135,1.6,3.8,66,0.00,,,0.00,pywws,2013-01-27 04:19:00,
2013-01-26 23:24:00,42.6,32.1,30.39,ESE,112,0.7,1.6,66,0.00,,,0.00,pywws,2013-01-27 04:24:00,
2013-01-26 23:34:00,42.4,32.3,30.40,SE,135,0.7,2.2,67,0.00,,,0.00,pywws,2013-01-27 04:34:00,
2013-01-26 23:39:00,42.1,32.3,30.40,SE,135,1.6,3.1,68,0.00,,,0.00,pywws,2013-01-27 04:39:00,
2013-01-26 23:44:00,41.9,32.1,30.40,NE,45,0.7,1.6,68,0.00,,,0.00,pywws,2013-01-27 04:44:00,
2013-01-26 23:49:00,41.9,32.5,30.41,SE,135,0.7,2.2,69,0.00,,,0.00,pywws,2013-01-27 04:49:00,
2013-01-26 23:54:00,41.7,32.3,30.41,South,180,0.7,2.2,69,0.00,,,0.00,pywws,2013-01-27 04:54:00,